<?xml version="1.0" encoding="UTF-8" standalone="no" ?><gpx xmlns="http://www.topografix.com/GPX/1/1" xmlns:gpxx="http://www.garmin.com/xmlschemas/GpxExtensions/v3" xmlns:wptx1="http://www.garmin.com/xmlschemas/WaypointExtension/v1" xmlns:gpxtpx="http://www.garmin.com/xmlschemas/TrackPointExtension/v1" creator="GuideVTT.com" version="1.1" xmlns:xsi="http://www.w3.org/2001/XMLSchema-instance" xsi:schemaLocation="http://www.topografix.com/GPX/1/1 http://www.topografix.com/GPX/1/1/gpx.xsd http://www.garmin.com/xmlschemas/GpxExtensions/v3 http://www8.garmin.com/xmlschemas/GpxExtensionsv3.xsd http://www.garmin.com/xmlschemas/WaypointExtension/v1 http://www8.garmin.com/xmlschemas/WaypointExtensionv1.xsd http://www.garmin.com/xmlschemas/TrackPointExtension/v1 http://www.garmin.com/xmlschemas/TrackPointExtensionv1.xsd">
<metadata><link href="http://www.garmin.com"><text>Garmin International</text></link><time>2013-06-22T15:13:50Z</time></metadata>
<trk><name>ile_de_re.gpx</name><extensions><gpxx:TrackExtension><gpxx:DisplayColor>Cyan</gpxx:DisplayColor></gpxx:TrackExtension></extensions><trkseg>
<trkpt lat="46.24421990" lon="-1.56063130"><ele>5</ele><time>2007-09-09T09:54:28Z</time></trkpt>
<trkpt lat="46.24448170" lon="-1.56035890"><ele>5</ele><time>2007-09-09T09:54:28Z</time></trkpt>
<trkpt lat="46.24507500" lon="-1.56026040"><ele>4</ele><time>2007-09-09T09:54:28Z</time></trkpt>
<trkpt lat="46.24493730" lon="-1.55895610"><ele>5</ele><time>2007-09-09T09:54:28Z</time></trkpt>
<trkpt lat="46.24472760" lon="-1.55789140"><ele>4</ele><time>2007-09-09T09:54:28Z</time></trkpt>
<trkpt lat="46.24442350" lon="-1.55668870"><ele>4</ele><time>2007-09-09T09:54:28Z</time></trkpt>
<trkpt lat="46.24409570" lon="-1.55545170"><ele>5</ele><time>2007-09-09T09:54:28Z</time></trkpt>
<trkpt lat="46.24369750" lon="-1.55404270"><ele>5</ele><time>2007-09-09T09:54:28Z</time></trkpt>
<trkpt lat="46.24348830" lon="-1.55280660"><ele>4</ele><time>2007-09-09T09:54:28Z</time></trkpt>
<trkpt lat="46.24325700" lon="-1.55112450"><ele>5</ele><time>2007-09-09T09:54:28Z</time></trkpt>
<trkpt lat="46.24309730" lon="-1.54927150"><ele>4</ele><time>2007-09-09T09:54:28Z</time></trkpt>
<trkpt lat="46.24303090" lon="-1.54789920"><ele>5</ele><time>2007-09-09T09:54:28Z</time></trkpt>
<trkpt lat="46.24303610" lon="-1.54639030"><ele>4</ele><time>2007-09-09T09:54:28Z</time></trkpt>
<trkpt lat="46.24304050" lon="-1.54508720"><ele>5</ele><time>2007-09-09T09:54:28Z</time></trkpt>
<trkpt lat="46.24311570" lon="-1.54392170"><ele>6</ele><time>2007-09-09T09:54:28Z</time></trkpt>
<trkpt lat="46.24314340" lon="-1.54272160"><ele>7</ele><time>2007-09-09T09:54:28Z</time></trkpt>
<trkpt lat="46.24331280" lon="-1.54172820"><ele>7</ele><time>2007-09-09T09:54:28Z</time></trkpt>
<trkpt lat="46.24376810" lon="-1.54035960"><ele>5</ele><time>2007-09-09T09:54:28Z</time></trkpt>
<trkpt lat="46.24443840" lon="-1.53851230"><ele>5</ele><time>2007-09-09T09:54:28Z</time></trkpt>
<trkpt lat="46.24532390" lon="-1.53615190"><ele>5</ele><time>2007-09-09T09:54:28Z</time></trkpt>
<trkpt lat="46.24619730" lon="-1.53412580"><ele>5</ele><time>2007-09-09T09:54:28Z</time></trkpt>
<trkpt lat="46.24696280" lon="-1.53217610"><ele>5</ele><time>2007-09-09T09:54:28Z</time></trkpt>
<trkpt lat="46.24779880" lon="-1.53039840"><ele>4</ele><time>2007-09-09T09:54:28Z</time></trkpt>
<trkpt lat="46.24870600" lon="-1.52858680"><ele>3</ele><time>2007-09-09T09:54:28Z</time></trkpt>
<trkpt lat="46.25016110" lon="-1.52602430"><ele>4</ele><time>2007-09-09T09:54:28Z</time></trkpt>
<trkpt lat="46.25142460" lon="-1.52400930"><ele>3</ele><time>2007-09-09T09:54:28Z</time></trkpt>
<trkpt lat="46.25297260" lon="-1.52206460"><ele>1</ele><time>2007-09-09T09:54:28Z</time></trkpt>
<trkpt lat="46.25418750" lon="-1.52039200"><ele>1</ele><time>2007-09-09T09:54:28Z</time></trkpt>
<trkpt lat="46.25518730" lon="-1.51926670"><ele>3</ele><time>2007-09-09T09:54:28Z</time></trkpt>
<trkpt lat="46.25599760" lon="-1.51803720"><ele>3</ele><time>2007-09-09T09:54:28Z</time></trkpt>
<trkpt lat="46.25640380" lon="-1.51711360"><ele>4</ele><time>2007-09-09T09:54:28Z</time></trkpt>
<trkpt lat="46.25716740" lon="-1.51567790"><ele>3</ele><time>2007-09-09T09:54:28Z</time></trkpt>
<trkpt lat="46.25754620" lon="-1.51471660"><ele>4</ele><time>2007-09-09T09:54:28Z</time></trkpt>
<trkpt lat="46.25795350" lon="-1.51341560"><ele>4</ele><time>2007-09-09T09:54:28Z</time></trkpt>
<trkpt lat="46.25814660" lon="-1.51231910"><ele>4</ele><time>2007-09-09T09:54:28Z</time></trkpt>
<trkpt lat="46.25796190" lon="-1.51067120"><ele>5</ele><time>2007-09-09T09:54:28Z</time></trkpt>
<trkpt lat="46.25768240" lon="-1.50902270"><ele>4</ele><time>2007-09-09T09:54:28Z</time></trkpt>
<trkpt lat="46.25742540" lon="-1.50771740"><ele>4</ele><time>2007-09-09T09:54:28Z</time></trkpt>
<trkpt lat="46.25719200" lon="-1.50648100"><ele>4</ele><time>2007-09-09T09:54:28Z</time></trkpt>
<trkpt lat="46.25712460" lon="-1.50524560"><ele>5</ele><time>2007-09-09T09:54:28Z</time></trkpt>
<trkpt lat="46.25719920" lon="-1.50411410"><ele>4</ele><time>2007-09-09T09:54:28Z</time></trkpt>
<trkpt lat="46.25727390" lon="-1.50294820"><ele>4</ele><time>2007-09-09T09:54:28Z</time></trkpt>
<trkpt lat="46.25711120" lon="-1.50184950"><ele>4</ele><time>2007-09-09T09:54:28Z</time></trkpt>
<trkpt lat="46.25673550" lon="-1.50061220"><ele>2</ele><time>2007-09-09T09:54:28Z</time></trkpt>
<trkpt lat="46.25635940" lon="-1.49947780"><ele>2</ele><time>2007-09-09T09:54:28Z</time></trkpt>
<trkpt lat="46.25593570" lon="-1.49841180"><ele>1</ele><time>2007-09-09T09:54:28Z</time></trkpt>
<trkpt lat="46.25560650" lon="-1.49744930"><ele>1</ele><time>2007-09-09T09:54:28Z</time></trkpt>
<trkpt lat="46.25525370" lon="-1.49645230"><ele>1</ele><time>2007-09-09T09:54:28Z</time></trkpt>
<trkpt lat="46.25413730" lon="-1.49699420"><ele>2</ele><time>2007-09-09T09:54:28Z</time></trkpt>
<trkpt lat="46.25352000" lon="-1.49723040"><ele>3</ele><time>2007-09-09T09:54:28Z</time></trkpt>
<trkpt lat="46.25309410" lon="-1.49688480"><ele>3</ele><time>2007-09-09T09:54:28Z</time></trkpt>
<trkpt lat="46.25252520" lon="-1.49677830"><ele>3</ele><time>2007-09-09T09:54:28Z</time></trkpt>
<trkpt lat="46.25204960" lon="-1.49718690"><ele>3</ele><time>2007-09-09T09:54:28Z</time></trkpt>
<trkpt lat="46.25138430" lon="-1.49759440"><ele>3</ele><time>2007-09-09T09:54:28Z</time></trkpt>
<trkpt lat="46.25105910" lon="-1.49909240"><ele>3</ele><time>2007-09-09T09:54:28Z</time></trkpt>
<trkpt lat="46.25078070" lon="-1.49878770"><ele>3</ele><time>2007-09-09T09:54:28Z</time></trkpt>
<trkpt lat="46.25048710" lon="-1.49890700"><ele>3</ele><time>2007-09-09T09:54:28Z</time></trkpt>
<trkpt lat="46.25015180" lon="-1.49894530"><ele>3</ele><time>2007-09-09T09:54:28Z</time></trkpt>
<trkpt lat="46.24971890" lon="-1.49892240"><ele>3</ele><time>2007-09-09T09:54:28Z</time></trkpt>
<trkpt lat="46.24799820" lon="-1.49990110"><ele>3</ele><time>2007-09-09T09:54:28Z</time></trkpt>
<trkpt lat="46.24773160" lon="-1.50032350"><ele>3</ele><time>2007-09-09T09:54:28Z</time></trkpt>
<trkpt lat="46.24633940" lon="-1.49886070"><ele>2</ele><time>2007-09-09T09:54:28Z</time></trkpt>
<trkpt lat="46.24578690" lon="-1.49897520"><ele>1</ele><time>2007-09-09T09:54:28Z</time></trkpt>
<trkpt lat="46.24518280" lon="-1.50016290"><ele>1</ele><time>2007-09-09T09:54:28Z</time></trkpt>
<trkpt lat="46.24435550" lon="-1.50126830"><ele>1</ele><time>2007-09-09T09:54:28Z</time></trkpt>
<trkpt lat="46.24406050" lon="-1.50185200"><ele>2</ele><time>2007-09-09T09:54:28Z</time></trkpt>
<trkpt lat="46.24267550" lon="-1.50270130"><ele>2</ele><time>2007-09-09T09:54:28Z</time></trkpt>
<trkpt lat="46.24131540" lon="-1.50377700"><ele>2</ele><time>2007-09-09T09:54:28Z</time></trkpt>
<trkpt lat="46.24027900" lon="-1.50408020"><ele>2</ele><time>2007-09-09T09:54:28Z</time></trkpt>
<trkpt lat="46.23984790" lon="-1.50495520"><ele>1</ele><time>2007-09-09T09:54:28Z</time></trkpt>
<trkpt lat="46.23874090" lon="-1.50499970"><ele>1</ele><time>2007-09-09T09:54:28Z</time></trkpt>
<trkpt lat="46.23777510" lon="-1.50556140"><ele>1</ele><time>2007-09-09T09:54:28Z</time></trkpt>
<trkpt lat="46.23648410" lon="-1.50741160"><ele>1</ele><time>2007-09-09T09:54:28Z</time></trkpt>
<trkpt lat="46.23630180" lon="-1.50864940"><ele>1</ele><time>2007-09-09T09:54:28Z</time></trkpt>
<trkpt lat="46.23547790" lon="-1.50952160"><ele>1</ele><time>2007-09-09T09:54:28Z</time></trkpt>
<trkpt lat="46.23383140" lon="-1.51085300"><ele>1</ele><time>2007-09-09T09:54:28Z</time></trkpt>
<trkpt lat="46.23393690" lon="-1.51136990"><ele>1</ele><time>2007-09-09T09:54:28Z</time></trkpt>
<trkpt lat="46.23379300" lon="-1.51173030"><ele>1</ele><time>2007-09-09T09:54:28Z</time></trkpt>
<trkpt lat="46.23396910" lon="-1.51250570"><ele>1</ele><time>2007-09-09T09:54:28Z</time></trkpt>
<trkpt lat="46.23343260" lon="-1.51281190"><ele>1</ele><time>2007-09-09T09:54:28Z</time></trkpt>
<trkpt lat="46.23393020" lon="-1.51353780"><ele>1</ele><time>2007-09-09T09:54:28Z</time></trkpt>
<trkpt lat="46.23428700" lon="-1.51359180"><ele>1</ele><time>2007-09-09T09:54:28Z</time></trkpt>
<trkpt lat="46.23514120" lon="-1.51447490"><ele>1</ele><time>2007-09-09T09:54:28Z</time></trkpt>
<trkpt lat="46.23492440" lon="-1.51529940"><ele>1</ele><time>2007-09-09T09:54:28Z</time></trkpt>
<trkpt lat="46.23424160" lon="-1.51668860"><ele>1</ele><time>2007-09-09T09:54:28Z</time></trkpt>
<trkpt lat="46.23266380" lon="-1.51884600"><ele>1</ele><time>2007-09-09T09:54:28Z</time></trkpt>
<trkpt lat="46.23198300" lon="-1.51961560"><ele>1</ele><time>2007-09-09T09:54:28Z</time></trkpt>
<trkpt lat="46.23165720" lon="-1.52100700"><ele>1</ele><time>2007-09-09T09:54:28Z</time></trkpt>
<trkpt lat="46.23207840" lon="-1.52328090"><ele>1</ele><time>2007-09-09T09:54:28Z</time></trkpt>
<trkpt lat="46.23067690" lon="-1.52605860"><ele>1</ele><time>2007-09-09T09:54:28Z</time></trkpt>
<trkpt lat="46.23056610" lon="-1.52719330"><ele>1</ele><time>2007-09-09T09:54:28Z</time></trkpt>
<trkpt lat="46.23080960" lon="-1.52915630"><ele>1</ele><time>2007-09-09T09:54:28Z</time></trkpt>
<trkpt lat="46.23069780" lon="-1.53060070"><ele>1</ele><time>2007-09-09T09:54:28Z</time></trkpt>
<trkpt lat="46.23005150" lon="-1.53168010"><ele>1</ele><time>2007-09-09T09:54:28Z</time></trkpt>
<trkpt lat="46.22712250" lon="-1.53461280"><ele>2</ele><time>2007-09-09T09:54:28Z</time></trkpt>
<trkpt lat="46.22715630" lon="-1.53518080"><ele>2</ele><time>2007-09-09T09:54:28Z</time></trkpt>
<trkpt lat="46.22647450" lon="-1.53620830"><ele>3</ele><time>2007-09-09T09:54:28Z</time></trkpt>
<trkpt lat="46.22622050" lon="-1.53744520"><ele>3</ele><time>2007-09-09T09:54:28Z</time></trkpt>
<trkpt lat="46.22586210" lon="-1.53785560"><ele>4</ele><time>2007-09-09T09:54:28Z</time></trkpt>
<trkpt lat="46.22513690" lon="-1.53813460"><ele>4</ele><time>2007-09-09T09:54:28Z</time></trkpt>
<trkpt lat="46.22556490" lon="-1.54017090"><ele>4</ele><time>2007-09-09T09:54:28Z</time></trkpt>
<trkpt lat="46.22643170" lon="-1.54099030"><ele>4</ele><time>2007-09-09T09:54:28Z</time></trkpt>
<trkpt lat="46.22698950" lon="-1.54239910"><ele>4</ele><time>2007-09-09T09:54:28Z</time></trkpt>
<trkpt lat="46.22759670" lon="-1.54436270"><ele>4</ele><time>2007-09-09T09:54:28Z</time></trkpt>
<trkpt lat="46.22812550" lon="-1.54676940"><ele>4</ele><time>2007-09-09T09:54:28Z</time></trkpt>
<trkpt lat="46.22914210" lon="-1.54862510"><ele>5</ele><time>2007-09-09T09:54:28Z</time></trkpt>
<trkpt lat="46.22992940" lon="-1.55022050"><ele>5</ele><time>2007-09-09T09:54:28Z</time></trkpt>
<trkpt lat="46.23041180" lon="-1.55122210"><ele>5</ele><time>2007-09-09T09:54:28Z</time></trkpt>
<trkpt lat="46.23030750" lon="-1.55181290"><ele>5</ele><time>2007-09-09T09:54:28Z</time></trkpt>
<trkpt lat="46.23073980" lon="-1.55251850"><ele>4</ele><time>2007-09-09T09:54:28Z</time></trkpt>
<trkpt lat="46.23106890" lon="-1.55348210"><ele>5</ele><time>2007-09-09T09:54:28Z</time></trkpt>
<trkpt lat="46.23134820" lon="-1.55407570"><ele>5</ele><time>2007-09-09T09:54:28Z</time></trkpt>
<trkpt lat="46.23162850" lon="-1.55437350"><ele>5</ele><time>2007-09-09T09:54:28Z</time></trkpt>
<trkpt lat="46.23188310" lon="-1.55470810"><ele>5</ele><time>2007-09-09T09:54:28Z</time></trkpt>
<trkpt lat="46.23183050" lon="-1.55511440"><ele>5</ele><time>2007-09-09T09:54:28Z</time></trkpt>
<trkpt lat="46.23233930" lon="-1.55589460"><ele>5</ele><time>2007-09-09T09:54:28Z</time></trkpt>
<trkpt lat="46.23305130" lon="-1.55708290"><ele>5</ele><time>2007-09-09T09:54:28Z</time></trkpt>
<trkpt lat="46.23376460" lon="-1.55786460"><ele>5</ele><time>2007-09-09T09:54:28Z</time></trkpt>
<trkpt lat="46.23462340" lon="-1.55854440"><ele>5</ele><time>2007-09-09T09:54:28Z</time></trkpt>
<trkpt lat="46.23536270" lon="-1.55921540"><ele>5</ele><time>2007-09-09T09:54:28Z</time></trkpt>
<trkpt lat="46.23628100" lon="-1.55988770"><ele>5</ele><time>2007-09-09T09:54:28Z</time></trkpt>
<trkpt lat="46.23704580" lon="-1.56059590"><ele>5</ele><time>2007-09-09T09:54:28Z</time></trkpt>
<trkpt lat="46.23776050" lon="-1.56097090"><ele>5</ele><time>2007-09-09T09:54:28Z</time></trkpt>
<trkpt lat="46.23888440" lon="-1.56134900"><ele>7</ele><time>2007-09-09T09:54:28Z</time></trkpt>
<trkpt lat="46.23988090" lon="-1.56161530"><ele>8</ele><time>2007-09-09T09:54:28Z</time></trkpt>
<trkpt lat="46.24095410" lon="-1.56188210"><ele>7</ele><time>2007-09-09T09:54:28Z</time></trkpt>
<trkpt lat="46.24207840" lon="-1.56214930"><ele>8</ele><time>2007-09-09T09:54:28Z</time></trkpt>
<trkpt lat="46.24310070" lon="-1.56234180"><ele>9</ele><time>2007-09-09T09:54:28Z</time></trkpt>
<trkpt lat="46.24386760" lon="-1.56242150"><ele>9</ele><time>2007-09-09T09:54:28Z</time></trkpt>
<trkpt lat="46.24450710" lon="-1.56238920"><ele>6</ele><time>2007-09-09T09:54:28Z</time></trkpt>
<trkpt lat="46.24481540" lon="-1.56198480"><ele>5</ele><time>2007-09-09T09:54:28Z</time></trkpt>
<trkpt lat="46.24435760" lon="-1.56127870"><ele>5</ele><time>2007-09-09T09:54:28Z</time></trkpt>
<trkpt lat="46.24402720" lon="-1.56068460"><ele>4</ele><time>2007-09-09T09:54:28Z</time></trkpt>
</trkseg></trk></gpx>